sat.trackr.live / text

‹ back to catalog

STARLINK-36857

NORAD 68518 · 2026-068L

PAYLOAD ACTIVE UNKNOWN

§ Identity

Operator
Country
US
Launch date
2026-03-30
Launch site
AFETR
Launch vehicle
Mass (kg)
RCS (m²)

Purposes: comms

External: N2YO · Heavens-Above · Gunter

§ Orbital elements

Epoch: 2026-09-20T03:19:28.098624Z

Period
93.85 min
Inclination
53.1584°
Eccentricity
0.0001234
Mean motion
15.34396093 rev/d
Perigee alt
461.9 km
Apogee alt
463.6 km
Semi-major
6,840.9 km
B*
6.5031e-4
RAAN
301.2680°
Arg perigee
95.2883°
Mean anomaly
264.8261°
Rev number
2,678

§ Raw data

STARLINK-368571 68518U 26068L   26263.13851966  .00021656  00000+0  65031-3 0  99952 68518  53.1584 301.2680 0001234  95.2883 264.8261 15.34396093 26786

JSON: /api/v1/satellites/68518 · /tle

For live sub-satellite position, see the globe view (requires WebGL).

§ Visibility from observer

Set your observer location to see the next 7 days of passes ≥ 10°. The values pass through the URL so the page stays shareable.

No JS? Fill the form by hand. The geolocation button needs JavaScript.